Regional Weather Roundup
Issued by NWS Newport/Morehead, NC

Current Version | Previous Version | Text Only | Print | Product List | Glossary On
Versions: 1 2 3 4 5 6 7 8 9 10 11 12 13 14 15 16 17 18 19 20 21 22 23 24 25 26 27 28 29 30 31 32 33 34 35 36 37 38 39 40 41 42 43 44 45 46 47 48 49 50
000 ASUS42 KMHX 190025 RWRMHX WEATHER ROUNDUP FOR EASTERN NORTH CAROLINA NATIONAL WEATHER SERVICE NEWPORT/MOREHEAD CITY NC 700 PM EST SAT FEB 18 2017 NOTE: "FAIR" INDICATES FEW OR NO CLOUDS BELOW 12,000 FEET WITH NO SIGNIFICANT WEATHER AND/OR OBSTRUCTIONS TO VISIBILITY NCZ015>017-031-032-045>047-102-103-190100- NORTH COAST CITY SKY/WX TMP DP RH WIND PRES REMARKS EDENTON CLOUDY 63 40 43 SW6 29.88S ELIZABETH CITY CLOUDY 61 40 45 SW10 29.87R KITTY HAWK NOT AVBL MANTEO CLOUDY 56 45 66 SW12 29.89F $$ NCZ045>047-081-094-103-104-190100- CENTRAL COAST CITY SKY/WX TMP DP RH WIND PRES REMARKS FRISCO PTCLDY 63 49 60 SW16G24 29.93S HAZE $$ NCZ095-097-098-100-101-190100- SOUTHERN COAST CITY SKY/WX TMP DP RH WIND PRES REMARKS BEAUFORT CLOUDY 59 51 75 SW14 29.94S CEDAR ISLAND NOT AVBL JACKSONVILLE CLOUDY 62 42 47 S6 29.92F PINEY ISLAND CLOUDY N/A N/A N/A SW13 29.93S WILMINGTON CLOUDY 60 43 53 S8 29.94F $$ NCZ011>013-027>030-043-044-078>080-089-090>093-098-190100- COASTAL PLAIN CITY SKY/WX TMP DP RH WIND PRES REMARKS AHOSKIE N/A 62 37 39 CALM 29.86S CLINTON CLOUDY 64 40 42 CALM 29.93R ELIZABETHTOWN CLOUDY 64 38 38 SW3 29.93S GOLDSBORO CLOUDY 65 35 33 SW9 29.89R GREENVILLE CLOUDY 64 34 32 SW8 29.91S HAVELOCK CLOUDY 61 43 51 SW10 29.94S KENANSVILLE NOT AVBL KINSTON CLOUDY 64 34 32 SW7 29.91S NEW BERN MOCLDY 63 41 44 S12G22 29.93S RICHLANDS PTCLDY 61 43 51 S7 29.93S ROCKY MOUNT CLOUDY 64 36 35 S9 29.88S WASHINGTON CLOUDY 65 36 33 SW9 29.89S WHITEVILLE CLOUDY 62 40 43 SW5 29.94R $$ AMZ130-135-150-152-154-156-158-170-250-252-270-ANZ085-086-088-633-658-670-190100- MARINE OBSERVATIONS STATION/POSITION TIME TEMP WIND PRES WAVE SWELL AIR SEA DIR/SP/G HT/PER HT/PER (UTC) (F) (DEG/KT/KT) (MB) (FT/S) (FT/S) CHESAPEAKE LIGHT NOT AVBL 64 E VA BEACH 2350 55 52 210/ 17/ 21 1010.6 4/ 5 DUCK 2354 60 47 210/ 15/ 19 1011.2 2 E DUCK 0000 47 N/A 2/ 9 OREGON INLET 2354 56 50 210/ 18/ 20 1012.2 13E OREGON INLT NOT AVBL HATTERAS CG 2354 61 55 220/ 12/ 20 1013.1 DIAMOND BUOY 2350 67 68 230/ 25/ 31 1013.5 4/ 5 2/ 9 CAPE LOOKOUT 0000 60 220/ 12/ 16 1013.7 BEAUFORT LAB 2354 58 51 230/ 4/ 10 1013.0 30 SE NEW RVR IN 0008 64 240/ 16/ 19 1014.3 30 SE NEW RVR IN 0013 65 N/A 4/ 5 27 SE WRIGHTSVLE 0008 62 60 210/ 12/ 16 1014.3 5 SE WRIGHTSVLE 0008 57 55 190/ 10/ 14 1013.9 225 S CAPE HAT 2350 70 71 210/ 17/ 21 1017.7 4/ 5 2/10 41 SE CHARLESTON 2350 66 69 210/ 6/ 8 1013.6 2/ 9 2/ 9 $$

USA.gov is the U.S. government's official web portal to all federal, state and local government web resources and services.